This demonstration page uses our WeatherBlox Daily Observations layout. Learn more.

40.92945, -100.16068

Hourly Observations for August 31, 2017

Temp ( °F °C ) Dew Point ( °F °C ) Humidity (%) Winds ( mph kmh ) Pressure ( in mb ) Visibility ( mi km ) Precip ( " mm )
12:15 am 00:15 Clear 67 19.3 61 15.9 81 81 SSE 5 7 30.06 1018 10 16.09344 0 0
12:35 am 00:35 Clear 64 17.6 59 15.2 86 86 SE 6 9 30.09 1019 10 16.09344 0 0
12:55 am 00:55 Clear 64 17.5 60 15.3 87 87 SE 5 7 30.09 1019 10 16.09344 0 0
1:15 am 01:15 Clear 64 17.5 60 15.3 87 87 SSE 5 7 30.09 1019 10 16.09344 0 0
1:35 am 01:35 Clear 63 17.1 59 14.8 86 86 SSE 6 9 30.09 1019 10 16.09344 0 0
1:55 am 01:55 Clear 63 17 58 14.7 86 86 S 6 9 30.06 1018 10 16.09344 0 0
2:15 am 02:15 Clear 62 16.7 58 14.5 87 87 SE 3 6 30.09 1019 10 16.09344 0 0
2:35 am 02:35 Clear 63 17 58 14.5 85 85 ESE 3 6 30.09 1019 10 16.09344 0 0
2:55 am 02:55 Clear 62 16.7 57 14.1 85 85 SE 7 11 30.09 1019 10 16.09344 0 0
3:15 am 03:15 Clear 62 16.6 57 14.1 85 85 SE 3 6 30.09 1019 10 16.09344 0 0
3:35 am 03:35 Clear 60 15.8 57 14 89 89 SE 3 6 30.09 1019 10 16.09344 0 0
3:55 am 03:55 Clear 59 15.1 56 13.5 90 90 ESE 5 7 30.09 1019 10 16.09344 0 0
4:15 am 04:15 Clear 59 14.9 56 13.4 91 91 Calm 30.09 1019 10 16.09344 0 0
4:35 am 04:35 Clear 58 14.7 56 13.5 93 93 ESE 3 6 30.09 1019 10 16.09344 0 0
4:55 am 04:55 Clear 58 14.7 56 13.5 93 93 Calm 30.09 1019 10 16.09344 0 0
5:15 am 05:15 Clear 58 14.4 56 13.3 93 93 Calm 30.09 1019 7 11.265408 0 0
5:35 am 05:35 Clear 59 15 57 14.1 94 94 ESE 3 6 30.09 1019 7 11.265408 0 0
5:55 am 05:55 Clear 57 13.7 55 12.8 94 94 ESE 5 7 30.12 1020 7 11.265408 0 0
6:15 am 06:15 Clear 59 15 57 14.1 94 94 SE 3 6 30.09 1019 10 16.09344 0 0
6:35 am 06:35 Clear 59 14.8 57 13.8 94 94 Calm 30.09 1019 7 11.265408 0 0
6:55 am 06:55 Clear with Mist and Fog 58 14.4 56 13.4 94 94 Calm 30.09 1019 5 8.04672 0 0
7:15 am 07:15 Mostly Cloudy with Mist and Fog 58 14.3 56 13.5 95 95 Calm 30.12 1020 1 1.609344 0 0
7:35 am 07:35 Sunny with Mist and Fog 58 14.2 56 13.4 95 95 Calm 30.12 1020 2.5 4.02336 0 0
7:55 am 07:55 Sunny with Mist and Fog 58 14.4 56 13.6 95 95 Calm 30.09 1019 5 8.04672 0 0
8:15 am 08:15 Sunny 60 15.7 59 14.9 95 95 Calm 30.09 1019 7 11.265408 0 0
8:35 am 08:35 Sunny 63 17.3 59 14.9 86 86 Calm 30.12 1020 10 16.09344 0 0
8:55 am 08:55 Sunny 64 17.5 58 14.7 84 84 SE 3 6 30.09 1019 10 16.09344 0 0
9:15 am 09:15 Sunny 66 18.9 59 15 78 78 SSE 3 6 30.06 1018 10 16.09344 0 0
9:35 am 09:35 Sunny 67 19.7 60 15.6 77 77 SSE 6 9 30.06 1018 10 16.09344 0 0
9:55 am 09:55 Sunny 70 20.9 60 15.8 73 73 S 6 9 30.06 1018 10 16.09344 0 0
10:15 am 10:15 Sunny 72 22 61 15.9 68 68 S 6 9 30.06 1018 10 16.09344 0 0
10:35 am 10:35 Sunny 73 22.5 60 15.8 66 66 S 7 11 30.03 1017 10 16.09344 0 0
10:55 am 10:55 Sunny 74 23.2 60 15.4 62 62 S 9 15 30.03 1017 10 16.09344 0 0
11:15 am 11:15 Sunny 75 24.1 60 15.3 58 58 S 9 15 30.03 1017 10 16.09344 0 0
11:35 am 11:35 Sunny 76 24.6 60 15.3 56 56 S 10 17 30 1016 10 16.09344 0 0
11:55 am 11:55 Sunny 77 25 59 14.9 54 54 S 12 19 30 1016 10 16.09344 0 0
12:15 pm 12:15 Sunny 78 25.4 59 15.2 53 53 S 10 17 30 1016 10 16.09344 0 0
12:35 pm 12:35 Sunny 78 25.7 59 14.9 51 51 SSW 10 17 30 1016 10 16.09344 0 0
12:55 pm 12:55 Sunny 79 26 58 14.6 49 49 SSE 12 19 30 1016 10 16.09344 0 0
1:15 pm 13:15 Sunny 79 26.3 58 14.5 48 48 SSE 12 19 29.97 1015 10 16.09344 0 0
1:35 pm 13:35 Sunny 80 26.5 59 15.1 50 50 S 10 17 29.97 1015 10 16.09344 0 0
1:55 pm 13:55 Sunny 80 26.5 59 15 49 49 S 10 17 29.97 1015 10 16.09344 0 0
2:15 pm 14:15 Sunny 80 26.7 59 14.9 48 48 SSE 10 17 29.97 1015 10 16.09344 0 0
2:35 pm 14:35 Sunny 80 26.5 59 14.9 49 49 SSE 14 22 29.97 1015 10 16.09344 0 0
2:55 pm 14:55 Sunny 81 27.2 58 14.5 46 46 SSE 13 20 29.97 1015 10 16.09344 0 0
3:15 pm 15:15 Sunny 81 27.4 59 15.1 47 47 SSE 10 17 29.94 1014 10 16.09344 0 0
3:35 pm 15:35 Sunny 82 27.5 59 14.8 46 46 SSE 12 19 29.94 1014 10 16.09344 0 0
3:55 pm 15:55 Sunny 82 28 59 15.1 45 45 S 10 17 29.91 1013 10 16.09344 0 0
4:15 pm 16:15 Sunny 82 27.9 60 15.5 47 47 SE 10 17 29.91 1013 10 16.09344 0 0
4:35 pm 16:35 Sunny 82 27.6 60 15.5 48 48 ESE 12 19 29.91 1013 10 16.09344 0 0
4:55 pm 16:55 Sunny 81 27.4 60 15.3 48 48 ESE 12 19 29.94 1014 10 16.09344 0 0
5:15 pm 17:15 Sunny 80 26.8 60 15.7 51 51 SE 10 17 29.94 1014 10 16.09344 0 0
5:35 pm 17:35 Sunny 79 26.2 59 14.9 50 50 SE 10 17 29.94 1014 10 16.09344 0 0
5:55 pm 17:55 Sunny 79 26.2 59 15.1 50 50 SE 12 19 29.94 1014 10 16.09344 0 0
6:15 pm 18:15 Sunny 79 26.1 58 14.4 49 49 SSE 13 20 29.94 1014 10 16.09344 0 0
6:35 pm 18:35 Sunny 78 25.5 60 15.3 53 53 SSE 8 13 29.94 1014 10 16.09344 0 0
7:15 pm 19:15 Sunny 77 24.8 61 16 58 58 SE 7 11 29.91 1013 10 16.09344 0 0
7:35 pm 19:35 Sunny 76 24.3 61 16.2 61 61 SE 8 13 29.91 1013 10 16.09344 0 0
7:55 pm 19:55 Sunny 75 23.9 61 16.3 63 63 ESE 9 15 29.91 1013 10 16.09344 0 0
8:15 pm 20:15 Clear 75 23.7 62 16.5 64 64 SE 10 17 29.91 1013 10 16.09344 0 0
8:35 pm 20:35 Clear 74 23.5 62 16.7 66 66 ESE 7 11 29.94 1014 10 16.09344 0 0
8:55 pm 20:55 Clear 73 23 62 16.6 67 67 ESE 12 19 29.94 1014 10 16.09344 0 0
9:15 pm 21:15 Clear 73 22.5 62 16.5 69 69 SE 9 15 29.94 1014 10 16.09344 0 0
9:35 pm 21:35 Clear 72 22.3 61 16.3 69 69 SE 8 13 29.97 1015 10 16.09344 0 0
9:55 pm 21:55 Clear 73 22.5 61 16.1 67 67 SE 10 17 29.97 1015 10 16.09344 0 0
10:15 pm 22:15 Partly Cloudy 72 22.3 61 16 68 68 SE 10 17 29.97 1015 10 16.09344 0 0
10:35 pm 22:35 Partly Cloudy 72 22 61 16 69 69 SE 10 17 29.97 1015 10 16.09344 0 0
10:55 pm 22:55 Clear 71 21.5 61 16 71 71 SE 7 11 29.97 1015 10 16.09344 0 0
11:15 pm 23:15 Clear 71 21.4 60 15.7 70 70 SE 8 13 29.97 1015 10 16.09344 0 0
11:35 pm 23:35 Clear 70 21.2 60 15.4 70 70 SSE 8 13 29.97 1015 10 16.09344 0 0
11:55 pm 23:55 Clear 70 21 59 15.2 70 70 SE 7 11 29.97 1015 10 16.09344 0 0

Powered by AerisWeather